Flag for France Weather past 2 weeks in Poitiers, France

Now
68 °F

Mild.


Feels Like: 68 °F
Forecast: 64 / 96 °F
Wind: 10 mph from East

Location: Poitiers Airport

Current Time: Jul 2, 2015 at 5:57:33 AM

Latest Report: Jul 2, 2015 at 5:00 AM


Visibility: N/A

Pressure: 29.92 "Hg

Humidity: 88%

Dew point: 64 °F

Location of PoitiersLocation

Historic Weather in Poitiers — Graph

°F

Poitiers temperature yesterday

Maximum temperature yesterday: 91 °F (at 2:30 PM)
Minimum temperature yesterday: 73 °F (at 4:30 AM)
Average temperature yesterday: 82 °F

Past Weeks' High & Low Weather Summary

 TemperatureHumidityPressure
High97 °F (Jun 30, 5:00 PM)94% (Jun 17, 6:30 AM)30.33 "Hg (Jun 17, 6:30 AM)
Low48 °F (Jun 17, 6:30 AM)20% (Jun 30, 8:00 PM)29.89 "Hg (Jun 22, 6:00 PM)
Average69 °F59%30.12 "Hg
* Reported Jun 17 4:00 AM — Jul 2 4:30 AM, Poitiers, Weather by CustomWeather, © 2015

Note: Actual official high and low records may vary slightly from our data, if they occured in-between our weather recording intervals... More about our weather records

Advertising

Poitiers weather history for previous 24 hours

 ConditionsComfort  
Time TempWeatherWind HumidityBarometerVisibility
4:30 AM
Thu, Jul 2
68 °FMild.7 mph88%29.98 "HgN/A
4:00 AM68 °FThundershowers. Overcast.8 mph88%30.04 "HgN/A
3:30 AM70 °FThundershowers. Overcast.6 mph78%29.98 "HgN/A
3:00 AM70 °FMild.7 mph83%29.98 "HgN/A
2:30 AM70 °FThunderstorms. Overcast.14 mph83%29.98 "HgN/A
2:00 AM70 °FLight rain. Overcast.7 mph78%30.07 "HgN/A
1:30 AM72 °FMild.9 mph73%30.04 "HgN/A
1:00 AM72 °FClear.7 mph69%30.01 "Hg10 mi
12:30 AM72 °FMild.5 mph73%30.01 "HgN/A
12:00 AM72 °FClear.5 mph69%29.98 "Hg10 mi
11:00 PM
Wed, Jul 1
77 °FClear.2 mph61%29.98 "Hg10 mi
10:30 PM77 °FSunny.5 mph61%29.98 "Hg10 mi
10:00 PM77 °FSunny.2 mph61%29.98 "Hg10 mi
9:30 PM81 °FSunny.2 mph51%29.98 "Hg10 mi
9:00 PM82 °FSunny.6 mph48%29.98 "Hg10 mi
8:30 PM84 °FSunny.8 mph45%29.98 "Hg10 mi
8:00 PM86 °FSunny.8 mph46%29.95 "Hg10 mi
7:30 PM88 °FPassing clouds.9 mph46%29.95 "HgN/A
7:00 PM88 °FSunny.9 mph40%29.95 "Hg10 mi
6:30 PM88 °FSunny.10 mph40%29.95 "Hg10 mi
6:00 PM90 °FPassing clouds.12 mph38%29.95 "HgN/A
5:30 PM90 °FSunny.14 mph36%29.95 "Hg10 mi
5:00 PM90 °FPassing clouds.12 mph41%29.95 "HgN/A
4:30 PM90 °FSunny.14 mph33%29.95 "Hg10 mi
4:00 PM91 °FPassing clouds.16 mph34%29.95 "HgN/A
3:30 PM91 °FPassing clouds.14 mph32%29.92 "HgN/A
3:00 PM91 °FSunny.18 mph32%29.92 "Hg10 mi
2:30 PM91 °FPassing clouds.13 mph34%29.92 "HgN/A
2:00 PM90 °FPassing clouds.17 mph33%29.92 "HgN/A
1:30 PM90 °FPassing clouds.14 mph33%29.92 "HgN/A
1:00 PM86 °FPassing clouds.16 mph35%29.92 "HgN/A
12:30 PM84 °FSunny.15 mph37%29.92 "Hg10 mi
12:00 PM84 °FPleasantly warm.17 mph37%29.92 "HgN/A
11:30 AM84 °FPassing clouds.12 mph45%29.92 "HgN/A
11:00 AM82 °FWarm.12 mph45%29.92 "HgN/A
10:30 AM79 °FSunny.17 mph58%29.92 "Hg10 mi
10:00 AM81 °FPassing clouds.7 mph51%29.92 "HgN/A
9:30 AM79 °FPassing clouds.3 mph54%29.89 "HgN/A
9:00 AM79 °FPassing clouds.5 mph48%29.89 "HgN/A
8:30 AM77 °FMostly cloudy.6 mph51%29.89 "HgN/A
8:00 AM77 °FWarm.10 mph51%29.92 "HgN/A
7:30 AM77 °FPartly sunny.7 mph54%29.89 "HgN/A
7:00 AM75 °FMild.12 mph57%29.89 "HgN/A
6:30 AM75 °FPassing clouds.9 mph61%29.89 "HgN/A
6:00 AM75 °FPassing clouds.6 mph61%29.92 "HgN/A
5:30 AM73 °FPassing clouds.6 mph65%29.92 "HgN/A
5:00 AM73 °FClear.6 mph65%29.92 "Hg10 mi
Weather by CustomWeather, © 2015

See weather overviewHow to use our weather pages